{"data":{"norad_id":64736,"epoch":"2026-09-20T11:51:20.660832Z","epoch_age_seconds":128164,"freshness":"FRESH","line1":"1 64736U 25144N   26263.49398913  .00018424  00000+0  55512-3 0  9996","line2":"2 64736  53.1614 353.6229 0001354 106.3289 253.7863 15.34397902 69574","mean_motion":15.34397902,"eccentricity":0.0001354,"inclination_deg":53.1614,"raan_deg":353.6229,"arg_perigee_deg":106.3289,"mean_anomaly_deg":253.7863,"bstar":0.00055512,"rev_number":6957,"period_min":93.84788640046,"perigee_km":461.7832252995,"apogee_km":463.63572652518,"semimajor_km":6840.8464759123,"source":"CELESTRAK","updated_at":"2026-09-21T09:00:35.411299Z"}}